Regional Weather Roundup
Issued by NWS

Home | Current Version | Previous Version | Text Only | Print | Product List | Glossary On
Versions: 1 2 3 4 5 6 7 8 9 10 11 12 13 14 15 16 17 18 19 20 21 22 23 24 25 26 27 28 29 30 31 32 33 34 35 36 37 38 39 40 41 42 43 44 45 46 47 48 49 50
000
ASUS43 KTOP 260608
RWRKS

WEATHER ROUNDUP FOR KANSAS
NATIONAL WEATHER SERVICE GOODLAND KS
100 AM CDT TUE JUL 26 2016

NOTE:  "FAIR" INDICATES FEW OR NO CLOUDS BELOW 12,000 FEET WITH NO
SIGNIFICANT WEATHER AND/OR OBSTRUCTIONS TO VISIBILITY.

KSZ001>006-013>018-027>032-041>047-260700-
NORTHWEST KANSAS

CITY           SKY/WX    TMP DP  RH WIND       PRES   REMARKS
GOODLAND       CLOUDY    71  64  78 SE13      30.14F
6HR MIN TEMP:  70; 6HR MAX TEMP:  84;

HAYS           PTCLDY    70  61  73 E7        30.12S
HILL CITY      PTCLDY    69  65  86 E7        30.12F
6HR MIN TEMP:  69; 6HR MAX TEMP:  86;

RUSSELL        PTCLDY    70  67  90 SE6       30.10F
6HR MIN TEMP:  70; 6HR MAX TEMP:  85;

$$

KSZ061>065-074>080-084>089-260700-
SOUTHWEST KANSAS

CITY           SKY/WX    TMP DP  RH WIND       PRES   REMARKS
DODGE CITY     PTCLDY    70  68  93 E5        30.13R
6HR MIN TEMP:  70; 6HR MAX TEMP:  85;

ELKHART          N/A     71  64  78 E7          N/A
GARDEN CITY    PTCLDY    70  66  87 E8        30.11F
6HR MIN TEMP:  69; 6HR MAX TEMP:  84;

GREAT BEND     CLEAR     72  63  73 E3        30.11S
LIBERAL        PTCLDY    73  64  73 E12       30.13S
PRATT          CLEAR     69  67  90 CALM      30.11R
6HR MIN TEMP:  69; 6HR MAX TEMP:  82;

$$

KSZ066>073-081>083-090>101-260700-
SOUTHEAST KANSAS

CITY           SKY/WX    TMP DP  RH WIND       PRES   REMARKS
CHANUTE        CLOUDY    76  73  91 E6        30.04R
6HR MIN TEMP:  76; 6HR MAX TEMP:  82;

COFFEYVILLE    CLOUDY    76  74  93 CALM      30.02S
6HR MIN TEMP:  76; 6HR MAX TEMP:  82;

HUTCHINSON     CLEAR     71  69  93 E5        30.09R
6HR MIN TEMP:  70; 6HR MAX TEMP:  84;

MEDICINE LODGE   N/A     74  68  81 CALM      30.07S
NEWTON         MOCLDY    72  71  97 E5        30.09S
PARSONS          N/A    N/A N/A N/A MISG      30.04S
WICHITA INTL   MOCLDY    77  71  82 E6        30.06R
6HR MIN TEMP:  76; 6HR MAX TEMP:  83;

WICHITA JABRA  CLOUDY    73  72  96 N5        30.07R
6HR MIN TEMP:  72; 6HR MAX TEMP:  82;

WICHITA MCCONL CLEAR     75  71  88 NE6       30.06S
WINFIELD       CLOUDY    76  73  91 E3        30.06R
6HR MIN TEMP:  76; 6HR MAX TEMP:  86;

$$

KSZ007>012-019>026-033>040-048>060-102>105-260700-
NORTHEAST KANSAS

CITY           SKY/WX    TMP DP  RH WIND       PRES   REMARKS
CONCORDIA      CLEAR     67  63  87 CALM      30.11R
6HR MIN TEMP:  67; 6HR MAX TEMP:  84;

EMPORIA        MOCLDY    74  72  93 E3        30.06R
6HR MIN TEMP:  74; 6HR MAX TEMP:  80;

LAWRENCE       MOCLDY    74  68  81 CALM      30.05S
6HR MIN TEMP:  74; 6HR MAX TEMP:  82;

MANHATTAN      CLEAR     70  66  87 CALM      30.07R
6HR MIN TEMP:  69; 6HR MAX TEMP:  84;

MARYSVILLE     CLEAR     64  63  94 N5        30.09S
OLATHE IND     PTCLDY    75  69  81 NE3       30.06S
6HR MIN TEMP:  73; 6HR MAX TEMP:  85;

OLATHE EXE     MOCLDY    75  68  78 NE3       30.05F
6HR MIN TEMP:  75; 6HR MAX TEMP:  83;

SALINA         CLEAR     72  68  87 CALM      30.08R
6HR MIN TEMP:  72; 6HR MAX TEMP:  86;

TOPEKA BILLARD MOCLDY    74  67  78 CALM      30.06R
6HR MIN TEMP:  72; 6HR MAX TEMP:  83;

TOPEKA FORBES  CLOUDY    76  67  73 NE3       30.06S
6HR MIN TEMP:  76; 6HR MAX TEMP:  82;

$$




USA.gov is the U.S. government's official web portal to all federal, state and local government web resources and services.